Home > Weather > Liberia > Past weeks

Flag for Costa Rica Weather for the Past 2 Weeks in Liberia, Costa Rica

Now
77 °F

Clear.


Feels Like: 79 °F
Forecast: 74 / 88 °F
Wind: 7 mph from Southwest

Location: Liberia/Tomas Guard

Current Time: Feb 9, 2016 at 11:55:24 PM

Latest Report: Feb 9, 2016 at 11:00 PM


Visibility: 10 mi

Pressure: 29.90 "Hg

Humidity: 54%

Dew point: 59 °F

Location of LiberiaLocation

Historic Weather in Liberia — Graph

°F

Liberia Temperature Yesterday

Maximum temperature yesterday: 90 °F (at 2:00 PM)
Minimum temperature yesterday: 75 °F (at 6:00 AM)
Average temperature yesterday: 83 °F

High & Low Weather Summary for the Past Weeks

 TemperatureHumidityPressure
High97 °F (Feb 3, 1:00 PM)88% (Jan 27, 6:00 AM)29.94 "Hg (Jan 27, 6:00 AM)
Low66 °F (Jan 27, 6:00 AM)22% (Feb 3, 1:00 PM)29.72 "Hg (Feb 3, 4:00 PM)
Average83 °F50%29.84 "Hg
* Reported Jan 25 10:00 PM — Feb 9 10:00 PM, Liberia, Weather by CustomWeather, © 2016

Note: Actual official high and low records may vary slightly from our data, if they occured in-between our weather recording intervals... More about our weather records

Advertising

Liberia Weather History for the Previous 24 Hours

 ConditionsComfort  
Time TempWeatherWind HumidityBarometerVisibility
10:00 PM
Tue, Feb 9
77 °FClear.8 mph54%29.89 "Hg10 mi
9:00 PM79 °FClear.9 mph51%29.88 "Hg10 mi
8:00 PM79 °FClear.12 mph54%29.87 "Hg10 mi
7:00 PM81 °FClear.7 mph51%29.85 "Hg10 mi
6:00 PM84 °FPassing clouds.12 mph45%29.82 "HgN/A
5:00 PM86 °FPassing clouds.15 mph43%29.80 "HgN/A
4:00 PM90 °FPassing clouds.6 mph38%29.79 "HgN/A
3:00 PM90 °FPassing clouds.12 mph38%29.79 "HgN/A
2:00 PM91 °FPassing clouds.21 mph36%29.78 "HgN/A
1:00 PM91 °FPassing clouds.22 mph34%29.81 "HgN/A
12:00 PM90 °FPassing clouds.16 mph38%29.85 "HgN/A
11:00 AM90 °FPassing clouds.12 mph38%29.89 "HgN/A
10:00 AM88 °FPassing clouds.12 mph40%29.91 "HgN/A
9:00 AM84 °FScattered clouds.9 mph45%29.92 "HgN/A
8:00 AM81 °FSunny.7 mph51%29.91 "Hg10 mi
7:00 AM73 °FSunny.6 mph65%29.89 "Hg10 mi
6:00 AM72 °FPassing clouds.8 mph69%29.87 "HgN/A
12:00 AM79 °FClear.16 mph58%29.87 "Hg10 mi
11:00 PM
Mon, Feb 8
79 °FClear.16 mph58%29.88 "Hg10 mi
Weather by CustomWeather, © 2016

See weather overviewHow to use our weather pages